• In Hungary
  • List of Countries
  • For 7 days
  • Water Temperature
  • Satellite Maps
  • Weather Map
  • News
  • Weather Widgets
  • user-avatar
    Login

    Hourly Weather Sanem

    Today, 19 February, Monday

    Time Temperature Precipitation Wind Pressure Humidity
    00:00 -4°C° 0 mm 2 mps 736 mmHg 90%
    01:00 -2°C° 0 mm 1 mps 736 mmHg 90%
    02:00 -2°C° 0 mm 1 mps 735 mmHg 90%
    03:00 -2°C° 0 mm 1 mps 735 mmHg 90%
    04:00 -2°C° 0 mm 1 mps 735 mmHg 90%
    05:00 -2°C° 0 mm 1 mps 735 mmHg 89%
    06:00 -2°C° 0 mm 1 mps 735 mmHg 89%
    07:00 -1°C° 0 mm 1 mps 735 mmHg 85%
    08:00 0°C° 0 mm 1 mps 734 mmHg 80%
    09:00 +1°C° 0 mm 1 mps 734 mmHg 76%
    10:00 +2°C° 0 mm 1 mps 734 mmHg 72%
    11:00 +3°C° 0 mm 1 mps 734 mmHg 68%
    12:00 +4°C° 0 mm 1 mps 734 mmHg 64%
    13:00 +3°C° 0 mm 0 mps 733 mmHg 63%
    14:00 +3°C° 0 mm 0 mps 733 mmHg 63%
    15:00 +4°C° 0 mm 0 mps 733 mmHg 62%
    16:00 +2°C° 0 mm 0 mps 732 mmHg 66%
    17:00 +1°C° 0 mm 0 mps 732 mmHg 70%
    18:00 0°C° 0 mm 0 mps 732 mmHg 74%
    19:00 0°C° 0 mm 0 mps 732 mmHg 75%
    20:00 0°C° 0 mm 0 mps 732 mmHg 75%
    21:00 0°C° 0 mm 0 mps 732 mmHg 75%
    22:00 0°C° 0 mm 0 mps 731 mmHg 76%
    23:00 0°C° 0 mm 0 mps 731 mmHg 76%

    Tomorrow, 20 February, Tuesday

    Time Temperature Precipitation Wind Pressure Humidity
    00:00 0°C° 0 mm 0 mps 731 mmHg 77%
    01:00 0°C° 0 mm 1 mps 731 mmHg 78%
    02:00 0°C° 0 mm 1 mps 731 mmHg 79%
    03:00 0°C° 0 mm 1 mps 731 mmHg 80%
    04:00 -1°C° 0 mm 1 mps 731 mmHg 81%
    05:00 -1°C° 0 mm 1 mps 731 mmHg 83%
    06:00 -1°C° 0 mm 1 mps 731 mmHg 84%
    07:00 0°C° 0 mm 1 mps 731 mmHg 79%
    08:00 +1°C° 0 mm 1 mps 731 mmHg 75%
    09:00 +1°C° 0 mm 2 mps 732 mmHg 70%
    10:00 +2°C° 0 mm 2 mps 732 mmHg 66%
    11:00 +3°C° 0 mm 2 mps 732 mmHg 62%
    12:00 +4°C° 0 mm 2 mps 732 mmHg 57%
    13:00 +4°C° 0 mm 2 mps 732 mmHg 58%
    14:00 +4°C° 0 mm 2 mps 732 mmHg 59%
    15:00 +4°C° 0 mm 2 mps 732 mmHg 60%
    16:00 +3°C° 0 mm 2 mps 732 mmHg 66%
    17:00 +1°C° 0 mm 2 mps 732 mmHg 72%
    18:00 -2°C° 0 mm 2 mps 733 mmHg 79%
    19:00 -2°C° 0 mm 2 mps 733 mmHg 80%
    20:00 -2°C° 0 mm 3 mps 733 mmHg 81%
    21:00 -4°C° 0 mm 3 mps 734 mmHg 82%
    22:00 -4°C° 0 mm 3 mps 734 mmHg 83%
    23:00 -4°C° 0 mm 3 mps 734 mmHg 85%

    Day after tomorrow, 21 February, Wednesday

    Time Temperature Precipitation Wind Pressure Humidity
    00:00 -4°C° 0 mm 3 mps 734 mmHg 86%
    01:00 -5°C° 0 mm 3 mps 735 mmHg 86%
    02:00 -5°C° 0 mm 3 mps 735 mmHg 86%
    03:00 -5°C° 0 mm 4 mps 735 mmHg 86%
    04:00 -5°C° 0 mm 4 mps 735 mmHg 85%
    05:00 -5°C° 0 mm 4 mps 735 mmHg 85%
    06:00 -5°C° 0 mm 4 mps 735 mmHg 85%
    07:00 -4°C° 0 mm 4 mps 735 mmHg 79%
    08:00 -2°C° 0 mm 4 mps 736 mmHg 74%
    09:00 -1°C° 0 mm 5 mps 736 mmHg 69%
    10:00 0°C° 0 mm 5 mps 736 mmHg 63%
    11:00 +1°C° 0 mm 5 mps 736 mmHg 58%
    12:00 +2°C° 0 mm 5 mps 736 mmHg 53%
    13:00 +2°C° 0 mm 5 mps 735 mmHg 53%
    14:00 +2°C° 0 mm 5 mps 735 mmHg 54%
    15:00 +2°C° 0 mm 5 mps 735 mmHg 54%
    16:00 0°C° 0 mm 4 mps 734 mmHg 60%
    17:00 -1°C° 0 mm 4 mps 734 mmHg 66%
    18:00 -2°C° 0 mm 3 mps 734 mmHg 72%
    19:00 -2°C° 0 mm 3 mps 734 mmHg 74%
    20:00 -4°C° 0 mm 4 mps 734 mmHg 75%
    21:00 -4°C° 0 mm 4 mps 734 mmHg 76%
    22:00 -4°C° 0 mm 4 mps 734 mmHg 76%
    23:00 -4°C° 0 mm 4 mps 734 mmHg 77%

    22 February, Thursday

    Time Temperature Precipitation Wind Pressure Humidity
    00:00 -5°C° 0 mm 4 mps 734 mmHg 77%
    01:00 -5°C° 0 mm 4 mps 733 mmHg 77%
    02:00 -5°C° 0 mm 4 mps 733 mmHg 77%
    03:00 -6°C° 0 mm 5 mps 733 mmHg 77%
    04:00 -6°C° 0 mm 5 mps 733 mmHg 77%
    05:00 -6°C° 0 mm 5 mps 733 mmHg 77%
    06:00 -6°C° 0 mm 5 mps 732 mmHg 76%
    07:00 -5°C° 0 mm 6 mps 733 mmHg 71%
    08:00 -4°C° 0 mm 7 mps 733 mmHg 66%
    09:00 -3°C° 0 mm 7 mps 733 mmHg 60%
    10:00 -2°C° 0 mm 7 mps 733 mmHg 55%
    11:00 -2°C° 0 mm 7 mps 732 mmHg 51%
    12:00 -1°C° 0 mm 8 mps 732 mmHg 46%
    13:00 -1°C° 0 mm 8 mps 732 mmHg 46%
    14:00 -1°C° 0 mm 8 mps 732 mmHg 46%
    15:00 -1°C° 0 mm 7 mps 731 mmHg 46%
    16:00 -2°C° 0 mm 7 mps 732 mmHg 50%
    17:00 -3°C° 0 mm 6 mps 732 mmHg 54%
    18:00 -4°C° 0 mm 6 mps 732 mmHg 58%
    19:00 -5°C° 0 mm 6 mps 732 mmHg 59%
    20:00 -5°C° 0 mm 6 mps 732 mmHg 60%
    21:00 -5°C° 0 mm 6 mps 732 mmHg 61%
    22:00 -6°C° 0 mm 6 mps 732 mmHg 61%
    23:00 -6°C° 0 mm 6 mps 732 mmHg 61%

    23 February, Friday

    Time Temperature Precipitation Wind Pressure Humidity
    00:00 -6°C° 0 mm 6 mps 732 mmHg 62%
    01:00 -6°C° 0 mm 6 mps 732 mmHg 62%
    02:00 -6°C° 0 mm 6 mps 731 mmHg 61%
    03:00 -6°C° 0 mm 6 mps 731 mmHg 61%
    04:00 -8°C° 0 mm 6 mps 731 mmHg 60%
    05:00 -8°C° 0 mm 6 mps 731 mmHg 59%
    06:00 -8°C° 0 mm 6 mps 731 mmHg 58%
    07:00 -6°C° 0 mm 6 mps 732 mmHg 55%
    08:00 -6°C° 0 mm 7 mps 732 mmHg 52%
    09:00 -6°C° 0 mm 7 mps 732 mmHg 48%
    10:00 -4°C° 0 mm 7 mps 732 mmHg 46%
    11:00 -2°C° 0 mm 7 mps 732 mmHg 44%
    12:00 -1°C° 0 mm 7 mps 732 mmHg 42%
    13:00 -1°C° 0 mm 7 mps 732 mmHg 42%
    14:00 -1°C° 0 mm 7 mps 732 mmHg 42%
    15:00 -1°C° 0 mm 7 mps 732 mmHg 42%
    16:00 -2°C° 0 mm 7 mps 732 mmHg 44%
    17:00 -3°C° 0 mm 6 mps 733 mmHg 46%
    18:00 -4°C° 0 mm 6 mps 733 mmHg 48%
    19:00 -5°C° 0 mm 6 mps 733 mmHg 49%
    20:00 -5°C° 0 mm 6 mps 734 mmHg 49%
    21:00 -6°C° 0 mm 7 mps 734 mmHg 50%
    22:00 -7°C° 0 mm 7 mps 734 mmHg 50%
    23:00 -7°C° 0 mm 7 mps 734 mmHg 50%

    24 February, Saturday

    Time Temperature Precipitation Wind Pressure Humidity
    00:00 -7°C° 0 mm 7 mps 734 mmHg 49%
    01:00 -7°C° 0 mm 7 mps 734 mmHg 48%
    02:00 -8°C° 0 mm 7 mps 735 mmHg 46%
    03:00 -8°C° 0 mm 7 mps 735 mmHg 44%
    04:00 -8°C° 0 mm 7 mps 735 mmHg 42%
    05:00 -8°C° 0 mm 7 mps 735 mmHg 40%
    06:00 -8°C° 0 mm 7 mps 736 mmHg 38%
    07:00 -7°C° 0 mm 7 mps 736 mmHg 35%
    08:00 -7°C° 0 mm 8 mps 737 mmHg 32%
    09:00 -6°C° 0 mm 8 mps 737 mmHg 29%
    10:00 -5°C° 0 mm 8 mps 737 mmHg 28%
    11:00 -4°C° 0 mm 8 mps 737 mmHg 26%
    12:00 -2°C° 0 mm 8 mps 737 mmHg 25%
    13:00 -2°C° 0 mm 8 mps 737 mmHg 26%
    14:00 -2°C° 0 mm 8 mps 737 mmHg 28%
    15:00 -2°C° 0 mm 8 mps 737 mmHg 29%
    16:00 -3°C° 0 mm 7 mps 737 mmHg 32%
    17:00 -4°C° 0 mm 7 mps 737 mmHg 35%
    18:00 -5°C° 0 mm 6 mps 737 mmHg 39%
    19:00 -5°C° 0 mm 6 mps 738 mmHg 41%
    20:00 -7°C° 0 mm 7 mps 738 mmHg 43%
    21:00 -7°C° 0 mm 7 mps 738 mmHg 45%
    22:00 -7°C° 0 mm 7 mps 738 mmHg 46%
    23:00 -8°C° 0 mm 7 mps 738 mmHg 47%
    Show more